Weather History for KLOR - December, 2012

Change the Weather History Date:

Monday, December 10, 2012

  Actual Average (KDHN) Record (KDHN)
Temperature  
Mean Temperature 67 °F 52 °F  
Max Temperature 77 °F 64 °F 80 °F (1943)
Min Temperature 55 °F 41 °F 22 °F (1955)
Degree Days  
Heating Degree Days 0 13  
Month to date heating degree days 121  
Since 1 July heating degree days 398  
Cooling Degree Days 2    
Growing Degree Days 17 (Base 50)    
Moisture  
Dew Point 62 °F    
Average Humidity 86    
Maximum Humidity 97    
Minimum Humidity 60    
Precipitation  
Precipitation 0.06 in 0.16 in 4.19 in (2008)
Month to date precipitation 1.81  
Year to date precipitation 51.39  
Sea Level Pressure  
Sea Level Pressure 29.86 in    
Wind  
Wind Speed 6 mph (SW)    
Max Wind Speed 18 mph    
Max Gust Speed 28 mph    
Visibility 8 miles    
Events Rain    
T = Trace of Precipitation, MM = Missing Value Source: NWS Daily Summary

Daily Weather History Graph

Daily Weather History Graph

Search for Another Location

Airport or City:

Trip Planner

Search our weather history database for the weather conditions in past years. The results will help you decide how hot, cold, wet, or windy it might be!

Date:

Astronomy

Dec. 10, 2012 Rise Set
Actual Time 6:31 AM CST 4:40 PM CST
Civil Twilight 6:04 AM CST 5:07 PM CST
Nautical Twilight 5:34 AM CST 5:37 PM CST
Astronomical Twilight 5:04 AM CST 6:07 PM CST
Moon 3:21 AM CST (12/10) 2:23 PM CST (12/10)
Length of Visible Light 11h 02m
Length of Day
10h 09m
Waning Crescent, 10% of the Moon is Illuminated
Dec 10
Waning Crescent
Dec 13
New
Dec 19
First Quarter
Dec 28
Full
Jan 4
Last Quarter

Hourly Weather History & Observations

Time (CST) Temp. Dew Point Humidity Pressure Visibility Wind Dir Wind Speed Gust Speed Precip Events Conditions
12:53 AM 62.1 °F 59.0 °F 90% 29.94 in 10.0 mi South 3.5 mph - N/A   Clear
1:38 AM 62.6 °F 60.8 °F 94% 29.95 in 9.0 mi Calm Calm - N/A   Partly Cloudy
1:53 AM 62.1 °F 60.1 °F 93% 29.94 in 8.0 mi Calm Calm - N/A   Clear
2:16 AM 62.6 °F 60.8 °F 94% 29.94 in 8.0 mi Calm Calm - N/A   Scattered Clouds
2:25 AM 62.6 °F 60.8 °F 94% 29.94 in 8.0 mi Calm Calm - N/A   Mostly Cloudy
2:41 AM 62.6 °F 60.8 °F 94% 29.93 in 2.5 mi South 4.6 mph - N/A   Overcast
2:53 AM 63.0 °F 61.0 °F 93% 29.92 in 0.8 mi South 5.8 mph - N/A   Mist
3:53 AM 63.0 °F 62.1 °F 97% 29.90 in 1.0 mi South 5.8 mph - 0.01 in   Mist
4:11 AM 64.4 °F 62.6 °F 94% 29.90 in 3.0 mi SSW 5.8 mph - N/A   Overcast
4:53 AM 64.9 °F 64.0 °F 97% 29.88 in 7.0 mi South 8.1 mph - N/A   Overcast
5:53 AM 66.0 °F 64.9 °F 96% 29.88 in 10.0 mi SSW 6.9 mph - N/A   Overcast
6:53 AM 66.9 °F 64.9 °F 93% 29.87 in 9.0 mi South 5.8 mph - N/A   Overcast
7:03 AM 66.2 °F 64.4 °F 94% 29.87 in 9.0 mi South 8.1 mph - N/A   Overcast
7:31 AM 68.0 °F 64.4 °F 88% 29.87 in 9.0 mi SSW 6.9 mph - N/A   Overcast
7:53 AM 68.0 °F 64.9 °F 90% 29.86 in 9.0 mi South 8.1 mph - N/A   Overcast
8:53 AM 70.0 °F 64.9 °F 84% 29.87 in 10.0 mi SSW 10.4 mph - N/A   Overcast
9:53 AM 73.0 °F 66.0 °F 79% 29.87 in 10.0 mi SSW 8.1 mph 18.4 mph N/A   Overcast
10:53 AM 73.0 °F 64.9 °F 76% 29.85 in 10.0 mi SSW 10.4 mph - N/A   Overcast
11:18 AM 75.2 °F 64.4 °F 69% 29.84 in 10.0 mi SW 12.7 mph 19.6 mph N/A   Mostly Cloudy
11:26 AM 77.0 °F 64.4 °F 65% 29.83 in 10.0 mi SSW 16.1 mph 21.9 mph N/A   Overcast
11:53 AM 75.9 °F 64.0 °F 67% 29.81 in 10.0 mi South 17.3 mph 23.0 mph N/A   Overcast
12:53 PM 77.0 °F 62.1 °F 60% 29.77 in 10.0 mi SSW 13.8 mph 23.0 mph N/A   Overcast
1:53 PM 75.9 °F 63.0 °F 64% 29.75 in 10.0 mi SSW 18.4 mph 27.6 mph N/A   Overcast
2:53 PM 70.0 °F 66.9 °F 90% 29.76 in 3.0 mi SW 15.0 mph 23.0 mph 0.05 in Rain Rain
3:53 PM 71.1 °F 64.0 °F 78% 29.76 in 10.0 mi WSW 9.2 mph - 0.00 in   Clear
4:53 PM 68.0 °F 62.1 °F 81% 29.77 in 10.0 mi NW 8.1 mph - N/A   Partly Cloudy
5:53 PM 66.0 °F 62.1 °F 87% 29.78 in 10.0 mi NW 4.6 mph - N/A   Clear
6:53 PM 64.9 °F 62.1 °F 90% 29.81 in 10.0 mi Calm Calm - N/A   Overcast
7:53 PM 66.0 °F 62.1 °F 87% 29.82 in 10.0 mi West 3.5 mph - N/A   Overcast
8:53 PM 64.9 °F 62.1 °F 90% 29.83 in 10.0 mi West 4.6 mph - N/A   Overcast
9:57 PM 64.4 °F 60.8 °F 88% 29.85 in 10.0 mi NW 11.5 mph 23.0 mph N/A   Overcast
10:40 PM 59.0 °F 55.4 °F 88% 29.87 in 10.0 mi NNW 10.4 mph - N/A   Overcast
10:53 PM 57.9 °F 55.0 °F 90% 29.87 in 10.0 mi NNW 9.2 mph - N/A   Overcast
11:31 PM 57.2 °F 51.8 °F 82% 29.88 in 10.0 mi NW 9.2 mph 17.3 mph N/A   Overcast
11:53 PM 55.9 °F 52.0 °F 87% 29.88 in 10.0 mi NNW 9.2 mph 17.3 mph N/A   Overcast